User: anonymous   Login
Location: Ste-F�licit�
(48.8999°N, 67.3360°W)
Time: 07:51:41
(UTC-04:00)
Language:

CAS-4A - Orbit

View from above orbital plane
View from above orbital plane
View from above satellite
View from above satellite

Ground track
Ground track

The orbit data is extracted from the following two-line orbital elements,

1 42761U 17034D   20293.87026583 +.00000101 +00000-0 +19544-4 0  9999
2 42761 043.0181 062.6415 0009729 091.0988 050.6680 15.09989767184778
Epoch (UTC): 19 October 2020 20:53:10
Eccentricity: 0.0009729
inclination: 43.0181°
perigee height: 529 km
apogee height: 543 km
right ascension of ascending node: 62.6415°
argument of perigee: 91.0988°
revolutions per day: 15.09989767
mean anomaly at epoch: 50.6680°
orbit number at epoch: 18477

The dashed part of the orbit path shows where the satellite is in the earth's shadow,  

DLR